Time,TemperatureF,DewpointF,PressureIn,WindDirection,WindDirectionDegrees,WindSpeedMPH,WindSpeedGustMPH,Humidity,HourlyPrecipIn,Conditions,Clouds,dailyrainin,SoftwareType,DateUTC
2014-10-21 00:04:00,44.1,32.0,28.59,SSW,213,0.0,0.0,20,0.00,,,-99.99,wx200d/1.3,2014-10-21 04:04:00,
2014-10-21 00:10:00,44.1,32.0,28.59,SSW,213,0.0,0.0,20,0.00,,,-99.99,wx200d/1.3,2014-10-21 04:10:00,
2014-10-21 00:16:00,44.1,32.0,28.59,SW,229,0.0,0.0,20,0.00,,,-99.99,wx200d/1.3,2014-10-21 04:16:00,
2014-10-21 00:22:00,43.9,32.0,28.61,SW,229,0.0,0.0,20,0.00,,,-99.99,wx200d/1.3,2014-10-21 04:22:00,
2014-10-21 00:28:00,43.7,32.0,28.61,SW,223,0.0,0.0,20,0.00,,,-99.99,wx200d/1.3,2014-10-21 04:28:00,
2014-10-21 00:34:00,43.7,32.0,28.61,WSW,258,0.0,0.0,20,0.00,,,-99.99,wx200d/1.3,2014-10-21 04:34:00,
2014-10-21 00:40:00,43.7,32.0,28.61,WSW,258,0.0,0.0,20,0.00,,,-99.99,wx200d/1.3,2014-10-21 04:40:00,
2014-10-21 00:46:00,43.7,32.0,28.61,WSW,258,0.0,0.0,23,0.00,,,-99.99,wx200d/1.3,2014-10-21 04:46:00,
2014-10-21 00:52:00,43.9,32.0,28.61,South,177,0.0,0.0,23,0.00,,,-99.99,wx200d/1.3,2014-10-21 04:52:00,
2014-10-21 00:58:00,43.9,32.0,28.61,West,270,0.0,0.0,23,0.00,,,-99.99,wx200d/1.3,2014-10-21 04:58:00,
2014-10-21 01:04:00,43.7,32.0,28.61,WSW,238,0.0,0.0,23,0.00,,,-99.99,wx200d/1.3,2014-10-21 05:04:00,
2014-10-21 01:10:00,43.7,32.0,28.61,WSW,243,0.0,0.0,23,0.00,,,-99.99,wx200d/1.3,2014-10-21 05:10:00,
2014-10-21 01:16:00,43.7,32.0,28.61,WSW,243,0.0,0.0,23,0.00,,,-99.99,wx200d/1.3,2014-10-21 05:16:00,
2014-10-21 01:22:00,43.7,32.0,28.61,West,278,0.0,0.0,23,0.00,,,-99.99,wx200d/1.3,2014-10-21 05:22:00,
2014-10-21 01:28:00,43.7,32.0,28.61,SW,216,0.0,0.0,23,0.00,,,-99.99,wx200d/1.3,2014-10-21 05:28:00,
2014-10-21 01:34:00,43.7,32.0,28.59,SSW,194,0.0,0.0,23,0.00,,,-99.99,wx200d/1.3,2014-10-21 05:34:00,
2014-10-21 01:40:00,43.9,32.0,28.59,South,174,0.0,0.0,23,0.00,,,-99.99,wx200d/1.3,2014-10-21 05:40:00,
2014-10-21 01:46:00,43.9,32.0,28.59,South,183,0.0,0.0,23,0.00,,,-99.99,wx200d/1.3,2014-10-21 05:46:00,
2014-10-21 01:52:00,44.1,32.0,28.61,SSW,197,0.0,0.0,23,0.00,,,-99.99,wx200d/1.3,2014-10-21 05:52:00,
2014-10-21 01:58:00,44.1,32.0,28.61,SSW,210,0.0,0.0,23,0.00,,,-99.99,wx200d/1.3,2014-10-21 05:58:00,
2014-10-21 02:04:00,44.1,32.0,28.61,SSW,210,0.0,0.0,23,0.00,,,-99.99,wx200d/1.3,2014-10-21 06:04:00,
2014-10-21 02:10:00,44.1,32.0,28.61,SSW,210,0.0,0.0,23,0.00,,,-99.99,wx200d/1.3,2014-10-21 06:10:00,
2014-10-21 02:16:00,44.1,32.0,28.61,SSW,210,0.0,0.0,25,0.00,,,-99.99,wx200d/1.3,2014-10-21 06:16:00,
2014-10-21 02:22:00,44.1,32.0,28.61,SSW,210,0.0,0.0,25,0.00,,,-99.99,wx200d/1.3,2014-10-21 06:22:00,
2014-10-21 02:28:00,44.1,32.0,28.61,SW,219,0.0,0.0,25,0.00,,,-99.99,wx200d/1.3,2014-10-21 06:28:00,
2014-10-21 02:34:00,44.2,32.0,28.59,South,190,0.0,0.0,25,0.00,,,-99.99,wx200d/1.3,2014-10-21 06:34:00,
2014-10-21 02:40:00,44.2,32.0,28.59,South,190,0.0,0.0,25,0.00,,,-99.99,wx200d/1.3,2014-10-21 06:40:00,
2014-10-21 02:46:00,44.2,32.0,28.59,South,191,0.0,0.0,25,0.00,,,-99.99,wx200d/1.3,2014-10-21 06:46:00,
2014-10-21 02:52:00,44.2,32.0,28.59,SSW,199,0.0,0.0,28,0.00,,,-99.99,wx200d/1.3,2014-10-21 06:52:00,
2014-10-21 02:58:00,44.2,32.0,28.59,SSW,199,0.0,0.0,28,0.00,,,-99.99,wx200d/1.3,2014-10-21 06:58:00,
2014-10-21 03:04:00,44.1,32.0,28.59,SSW,199,0.0,0.0,28,0.00,,,-99.99,wx200d/1.3,2014-10-21 07:04:00,
2014-10-21 03:10:00,43.9,32.0,28.59,SSW,199,0.0,0.0,29,0.00,,,-99.99,wx200d/1.3,2014-10-21 07:10:00,
2014-10-21 03:16:00,43.7,32.0,28.59,SSW,199,0.0,0.0,29,0.00,,,-99.99,wx200d/1.3,2014-10-21 07:16:00,
2014-10-21 03:22:00,43.5,32.0,28.59,SSW,199,0.0,0.0,31,0.00,,,-99.99,wx200d/1.3,2014-10-21 07:22:00,
2014-10-21 03:28:00,43.5,32.0,28.59,SSW,199,0.0,0.0,31,0.00,,,-99.99,wx200d/1.3,2014-10-21 07:28:00,
2014-10-21 03:34:00,43.5,32.0,28.59,SSW,199,0.0,0.0,31,0.00,,,-99.99,wx200d/1.3,2014-10-21 07:34:00,
2014-10-21 03:40:00,43.3,32.0,28.59,SSW,199,0.0,0.0,32,0.00,,,-99.99,wx200d/1.3,2014-10-21 07:40:00,
2014-10-21 03:46:00,43.3,32.0,28.59,SSW,199,0.0,0.0,32,0.00,,,-99.99,wx200d/1.3,2014-10-21 07:46:00,
2014-10-21 03:52:00,43.3,32.0,28.59,SSW,199,0.0,0.0,33,0.00,,,-99.99,wx200d/1.3,2014-10-21 07:52:00,
2014-10-21 03:58:00,43.2,32.0,28.59,SSW,199,0.0,0.0,33,0.00,,,-99.99,wx200d/1.3,2014-10-21 07:58:00,
2014-10-21 04:04:00,43.2,32.0,28.59,SSW,199,0.0,0.0,34,0.00,,,-99.99,wx200d/1.3,2014-10-21 08:04:00,
2014-10-21 04:10:00,43.2,32.0,28.59,SSW,199,0.0,0.0,34,0.00,,,-99.99,wx200d/1.3,2014-10-21 08:10:00,
2014-10-21 04:16:00,43.2,32.0,28.59,SSW,199,0.0,0.0,34,0.00,,,-99.99,wx200d/1.3,2014-10-21 08:16:00,
2014-10-21 04:22:00,43.0,32.0,28.59,SSW,199,0.0,0.0,34,0.00,,,-99.99,wx200d/1.3,2014-10-21 08:22:00,
2014-10-21 04:28:00,43.2,32.0,28.59,SSW,199,0.0,0.0,34,0.00,,,-99.99,wx200d/1.3,2014-10-21 08:28:00,
2014-10-21 04:34:00,43.2,32.0,28.59,SSW,199,0.0,0.0,35,0.00,,,-99.99,wx200d/1.3,2014-10-21 08:34:00,
2014-10-21 04:40:00,43.3,32.0,28.59,SSW,199,0.0,0.0,34,0.00,,,-99.99,wx200d/1.3,2014-10-21 08:40:00,
2014-10-21 04:46:00,43.3,32.0,28.59,SSW,199,0.0,0.0,34,0.00,,,-99.99,wx200d/1.3,2014-10-21 08:46:00,
2014-10-21 04:52:00,43.3,32.0,28.59,SSW,199,0.0,0.0,33,0.00,,,-99.99,wx200d/1.3,2014-10-21 08:52:00,
2014-10-21 04:58:00,43.3,32.0,28.59,SSW,199,0.0,0.0,33,0.00,,,-99.99,wx200d/1.3,2014-10-21 08:58:00,
2014-10-21 05:04:00,43.3,32.0,28.59,SSW,199,0.0,0.0,34,0.00,,,-99.99,wx200d/1.3,2014-10-21 09:04:00,
2014-10-21 05:10:00,43.3,32.0,28.59,SSW,199,0.0,0.0,34,0.00,,,-99.99,wx200d/1.3,2014-10-21 09:10:00,
2014-10-21 05:16:00,43.3,32.0,28.59,SSW,199,0.0,0.0,34,0.00,,,-99.99,wx200d/1.3,2014-10-21 09:16:00,
2014-10-21 05:22:00,43.3,32.0,28.59,SSW,199,0.0,0.0,34,0.00,,,-99.99,wx200d/1.3,2014-10-21 09:22:00,
2014-10-21 05:28:00,43.3,32.0,28.59,SSW,199,0.0,0.0,34,0.00,,,-99.99,wx200d/1.3,2014-10-21 09:28:00,
2014-10-21 05:34:00,43.3,32.0,28.56,SSW,199,0.0,0.0,35,0.00,,,-99.99,wx200d/1.3,2014-10-21 09:34:00,
2014-10-21 05:40:00,43.5,32.0,28.56,SSW,199,0.0,0.0,35,0.00,,,-99.99,wx200d/1.3,2014-10-21 09:40:00,
2014-10-21 05:46:00,43.5,32.0,28.56,SSW,199,0.0,0.0,35,0.00,,,-99.99,wx200d/1.3,2014-10-21 09:46:00,
2014-10-21 05:52:00,43.5,32.0,28.59,SSW,199,0.0,0.0,35,0.00,,,-99.99,wx200d/1.3,2014-10-21 09:52:00,
2014-10-21 05:58:00,43.5,32.0,28.59,SSW,199,0.0,0.0,35,0.00,,,-99.99,wx200d/1.3,2014-10-21 09:58:00,
2014-10-21 06:04:00,43.7,32.0,28.59,SSW,199,0.0,0.0,35,0.00,,,-99.99,wx200d/1.3,2014-10-21 10:04:00,
2014-10-21 06:10:00,43.7,32.0,28.59,SSW,199,0.0,0.0,35,0.00,,,-99.99,wx200d/1.3,2014-10-21 10:10:00,
2014-10-21 06:16:00,43.7,32.0,28.59,SSW,199,0.0,0.0,35,0.00,,,-99.99,wx200d/1.3,2014-10-21 10:16:00,
2014-10-21 06:22:00,43.7,32.0,28.59,SSW,199,0.0,0.0,35,0.00,,,-99.99,wx200d/1.3,2014-10-21 10:22:00,
2014-10-21 06:28:00,43.9,32.0,28.59,SSW,199,0.0,0.0,35,0.00,,,-99.99,wx200d/1.3,2014-10-21 10:28:00,
2014-10-21 06:34:00,43.9,32.0,28.59,SSW,199,0.0,0.0,35,0.00,,,-99.99,wx200d/1.3,2014-10-21 10:34:00,
2014-10-21 06:40:00,44.1,32.0,28.59,SSW,199,0.0,0.0,35,0.00,,,-99.99,wx200d/1.3,2014-10-21 10:40:00,
2014-10-21 06:46:00,44.1,32.0,28.59,SSW,199,0.0,0.0,34,0.00,,,-99.99,wx200d/1.3,2014-10-21 10:46:00,
2014-10-21 06:52:00,44.1,32.0,28.59,West,260,0.0,0.0,34,0.00,,,-99.99,wx200d/1.3,2014-10-21 10:52:00,
2014-10-21 06:58:00,44.1,32.0,28.59,SSE,164,0.0,0.0,34,0.00,,,-99.99,wx200d/1.3,2014-10-21 10:58:00,
2014-10-21 07:04:00,44.1,32.0,28.59,SSE,164,0.0,0.0,33,0.00,,,-99.99,wx200d/1.3,2014-10-21 11:04:00,
2014-10-21 07:10:00,44.1,32.0,28.59,SSE,164,0.0,0.0,33,0.00,,,-99.99,wx200d/1.3,2014-10-21 11:10:00,
2014-10-21 07:16:00,43.9,32.0,28.59,SSE,164,0.0,0.0,33,0.00,,,-99.99,wx200d/1.3,2014-10-21 11:16:00,
2014-10-21 07:22:00,43.7,32.0,28.59,SSE,164,0.0,0.0,32,0.00,,,-99.99,wx200d/1.3,2014-10-21 11:22:00,
2014-10-21 07:28:00,43.5,32.0,28.59,SSE,164,0.0,0.0,32,0.00,,,-99.99,wx200d/1.3,2014-10-21 11:28:00,
2014-10-21 07:34:00,43.3,32.0,28.59,SSE,164,0.0,0.0,32,0.00,,,-99.99,wx200d/1.3,2014-10-21 11:34:00,
2014-10-21 07:40:00,43.3,32.0,28.59,SSE,164,0.0,0.0,31,0.00,,,-99.99,wx200d/1.3,2014-10-21 11:40:00,
2014-10-21 07:46:00,43.2,32.0,28.59,SSE,164,0.0,0.0,31,0.00,,,-99.99,wx200d/1.3,2014-10-21 11:46:00,
2014-10-21 07:52:00,43.2,32.0,28.59,West,260,0.0,0.0,31,0.00,,,-99.99,wx200d/1.3,2014-10-21 11:52:00,
2014-10-21 07:58:00,43.3,32.0,28.59,West,259,0.0,0.0,32,0.00,,,-99.99,wx200d/1.3,2014-10-21 11:58:00,
2014-10-21 08:04:00,43.5,32.0,28.59,West,259,0.0,0.0,32,0.00,,,-99.99,wx200d/1.3,2014-10-21 12:04:00,
2014-10-21 08:10:00,43.9,32.0,28.59,WNW,288,0.0,0.0,33,0.00,,,-99.99,wx200d/1.3,2014-10-21 12:10:00,
2014-10-21 08:16:00,44.1,32.0,28.59,WNW,293,0.0,0.0,33,0.00,,,-99.99,wx200d/1.3,2014-10-21 12:16:00,
2014-10-21 08:22:00,44.2,32.0,28.59,NW,305,0.0,0.0,33,0.00,,,-99.99,wx200d/1.3,2014-10-21 12:22:00,
2014-10-21 08:28:00,44.4,32.0,28.59,NW,316,0.0,0.0,33,0.00,,,-99.99,wx200d/1.3,2014-10-21 12:28:00,
2014-10-21 08:34:00,44.6,32.0,28.61,NW,316,0.0,0.0,32,0.00,,,-99.99,wx200d/1.3,2014-10-21 12:34:00,
2014-10-21 08:40:00,44.8,32.0,28.61,NW,316,0.0,0.0,32,0.00,,,-99.99,wx200d/1.3,2014-10-21 12:40:00,
2014-10-21 08:46:00,45.0,32.0,28.61,NW,316,0.0,0.0,32,0.00,,,-99.99,wx200d/1.3,2014-10-21 12:46:00,
2014-10-21 08:52:00,45.1,32.0,28.61,North,6,0.0,0.0,33,0.00,,,-99.99,wx200d/1.3,2014-10-21 12:52:00,
2014-10-21 08:58:00,45.3,32.0,28.61,North,6,0.0,0.0,33,0.00,,,-99.99,wx200d/1.3,2014-10-21 12:58:00,
2014-10-21 09:04:00,45.5,32.0,28.61,North,6,0.0,0.0,34,0.00,,,-99.99,wx200d/1.3,2014-10-21 13:04:00,
2014-10-21 09:10:00,45.9,32.0,28.61,North,6,0.0,0.0,34,0.00,,,-99.99,wx200d/1.3,2014-10-21 13:10:00,
2014-10-21 09:16:00,46.2,32.0,28.61,North,6,0.0,0.0,35,0.00,,,-99.99,wx200d/1.3,2014-10-21 13:16:00,
2014-10-21 09:22:00,46.4,32.0,28.61,North,6,0.0,0.0,34,0.00,,,-99.99,wx200d/1.3,2014-10-21 13:22:00,
2014-10-21 09:28:00,46.6,32.0,28.61,NNW,330,0.0,0.0,34,0.00,,,-99.99,wx200d/1.3,2014-10-21 13:28:00,
2014-10-21 09:34:00,46.8,32.0,28.61,NE,41,0.0,0.0,35,0.00,,,-99.99,wx200d/1.3,2014-10-21 13:34:00,
2014-10-21 09:40:00,47.1,32.0,28.61,NW,312,0.0,0.0,34,0.00,,,-99.99,wx200d/1.3,2014-10-21 13:40:00,
2014-10-21 09:46:00,47.3,32.0,28.61,NW,312,0.0,0.0,34,0.00,,,-99.99,wx200d/1.3,2014-10-21 13:46:00,
2014-10-21 09:52:00,47.7,32.0,28.61,NW,312,0.0,0.0,35,0.00,,,-99.99,wx200d/1.3,2014-10-21 13:52:00,
2014-10-21 09:58:00,48.2,32.0,28.61,SE,129,0.0,0.0,35,0.00,,,-99.99,wx200d/1.3,2014-10-21 13:58:00,